Home   Weather   Haugesund   Past weeks

Flag for Norway Past Weather in Haugesund, Norway — Yesterday and Last 2 Weeks

Now
55 °F

Overcast.


Feels Like: 52 °F
Forecast: 56 / 60 °F
Wind: 12 mph from Southeast

Location: Karmoy

Current Time: Sep 27, 2016 at 12:40:35 AM

Latest Report: Sep 26, 2016 at 11:50 PM


Visibility: N/A

Pressure: 30.15 "Hg

Humidity: 82%

Dew Point: 50 °F

Location of HaugesundLocation

Past Weather in Haugesund — Graph

°F

Haugesund Temperature Yesterday

Maximum temperature yesterday: 61 °F (at 12:50 PM)
Minimum temperature yesterday: 54 °F (at 6:50 AM)
Average temperature yesterday: 58 °F

High & Low Weather Summary for the Past Weeks

 TemperatureHumidityPressure
High77 °F (Sep 13, 2:50 PM)100% (Sep 14, 12:50 AM)30.24 "Hg (Sep 14, 12:50 AM)
Low50 °F (Sep 20, 3:20 AM)47% (Sep 15, 5:50 PM)29.80 "Hg (Sep 25, 9:50 PM)
Average62 °F79%30.06 "Hg
* Reported Sep 11 11:20 PM — Sep 26 11:20 PM, Haugesund, Weather by CustomWeather, © 2016

Note: Actual official high and low records may vary slightly from our data, if they occured in-between our weather recording intervals... More about our weather records

Advertising

Haugesund Weather History for the Previous 24 Hours

Scroll right to see more
 ConditionsComfort  
Time TempWeatherWind HumidityBarometerVisibility
11:20 PM
Mon, Sep 26
55 °FPassing clouds.12 mph82%30.15 "HgN/A
10:50 PM55 °FPassing clouds.10 mph82%30.15 "HgN/A
10:20 PM55 °FPassing clouds.9 mph82%30.18 "HgN/A
9:50 PM54 °FPassing clouds.8 mph88%30.18 "HgN/A
9:20 PM54 °FPassing clouds.9 mph88%30.18 "HgN/A
8:50 PM55 °FLight rain. Passing clouds.9 mph77%30.18 "HgN/A
8:20 PM54 °FPassing clouds.8 mph82%30.15 "HgN/A
7:50 PM54 °FPassing clouds.8 mph82%30.15 "HgN/A
7:20 PM55 °FPassing clouds.8 mph72%30.15 "HgN/A
6:50 PM57 °FPassing clouds.8 mph67%30.15 "HgN/A
6:20 PM59 °FPassing clouds.12 mph63%30.15 "HgN/A
5:50 PM59 °FScattered clouds.14 mph63%30.15 "HgN/A
5:20 PM59 °FScattered clouds.15 mph68%30.15 "HgN/A
4:50 PM61 °FScattered clouds.15 mph63%30.15 "HgN/A
4:20 PM61 °FScattered clouds.16 mph63%30.15 "HgN/A
3:50 PM61 °FScattered clouds.15 mph59%30.12 "HgN/A
3:20 PM61 °FScattered clouds.17 mph63%30.12 "HgN/A
2:50 PM61 °FPassing clouds.15 mph59%30.12 "HgN/A
2:20 PM61 °FPassing clouds.17 mph59%30.12 "HgN/A
1:50 PM61 °FPassing clouds.16 mph63%30.12 "HgN/A
1:20 PM61 °FPassing clouds.17 mph59%30.09 "HgN/A
12:50 PM61 °FPassing clouds.16 mph59%30.09 "HgN/A
12:20 PM59 °FScattered clouds.17 mph63%30.09 "HgN/A
11:50 AM59 °FScattered clouds.20 mph72%30.07 "HgN/A
11:20 AM59 °FScattered clouds.18 mph72%30.07 "HgN/A
10:50 AM59 °FScattered clouds.20 mph68%30.07 "HgN/A
10:20 AM59 °FScattered clouds.18 mph72%30.04 "HgN/A
9:50 AM59 °FScattered clouds.20 mph68%30.04 "HgN/A
9:20 AM57 °FScattered clouds.21 mph77%30.04 "HgN/A
8:50 AM57 °FScattered clouds.21 mph77%30.04 "HgN/A
8:20 AM57 °FPartly sunny.17 mph82%30.04 "HgN/A
7:50 AM55 °FRain showers. Broken clouds.20 mph88%30.01 "Hg6 mi
7:20 AM54 °FScattered showers. Passing clouds.9 mph82%30.01 "HgN/A
6:50 AM54 °FPassing clouds.13 mph82%30.01 "HgN/A
6:20 AM57 °FPassing clouds.14 mph72%30.01 "HgN/A
5:50 AM59 °FPassing clouds.17 mph72%30.01 "HgN/A
5:20 AM59 °FPassing clouds.16 mph68%29.98 "HgN/A
4:50 AM59 °FPartly cloudy.16 mph72%29.98 "HgN/A
4:20 AM59 °FPartly cloudy.16 mph72%29.98 "HgN/A
3:50 AM59 °FPassing clouds.15 mph72%29.98 "HgN/A
3:20 AM59 °FPassing clouds.18 mph72%29.95 "HgN/A
2:50 AM59 °FPartly cloudy.15 mph77%29.95 "HgN/A
2:20 AM59 °FPartly cloudy.15 mph77%29.95 "HgN/A
1:50 AM59 °FLight rain. Passing clouds.15 mph77%29.95 "HgN/A
1:20 AM59 °FPassing clouds.20 mph77%29.95 "HgN/A
12:50 AM59 °FMostly cloudy.16 mph82%29.92 "HgN/A
12:20 AM59 °FPartly cloudy.17 mph88%29.92 "HgN/A
Weather by CustomWeather, © 2016

See weather overviewHow to use our weather pages